カタログに戻る

CZ-6A DEB

運用中PO
NORAD 61320·DEBRIS·🇨🇳 China

打ち上げ Aug 6, 2024 から Taiyuan Satellite Launch Center

Loading…

次のパス (今後24時間)

TLE

最新Source: Space-Track

元期: Sep 13, 2026, 23:47 UTC

1 61320U 24140UH  26256.99144617  .00000283  00000-0  11228-3 0  9995
2 61320  88.9928 263.5468 0014033 220.6844 139.3302 14.26120597106228

AllMySatでCZ-6A DEBをリアルタイム追跡

Download on the App Store